Location: Unspecified
(0.0000°N, 0.0000°E)
Time: 22:03:57
(UTC+00:00)

A-11 Canister half - All Passes

Search period start: 25 October 2014 00:00
Search period end: 04 November 2014 00:00
Orbit: 1518 x 1682 km, 47.2° (Epoch: 24 October)

Date Brightness Start Highest point End Pass type
(mag) Time Alt. Az. Time Alt. Az. Time Alt. Az.
25 Oct - 01:40:02 10° NNW 01:49:09 64° NE 01:58:24 10° SE visible
25 Oct - 03:46:40 10° W 03:53:57 26° SW 04:01:26 10° S visible
25 Oct - 12:27:07 10° S 12:35:29 29° SE 12:43:45 10° ENE daylight
25 Oct - 14:30:29 10° SW 14:40:29 64° NW 14:50:17 10° NNE daylight
25 Oct - 16:44:06 10° NW 16:46:00 11° NW 16:47:54 10° NNW daylight
26 Oct - 01:17:16 10° NNW 01:26:18 59° NE 01:35:26 10° SE visible
26 Oct - 03:23:28 10° WNW 03:31:03 28° SW 03:38:49 10° S visible
26 Oct - 12:04:30 10° S 12:12:33 27° SE 12:20:30 10° E daylight
26 Oct - 14:07:30 10° SW 14:17:35 69° NW 14:27:29 10° NNE daylight
26 Oct - 16:19:29 10° WNW 16:23:00 12° NW 16:26:31 10° NNW daylight
27 Oct - 00:54:31 10° NNW 01:03:26 54° NE 01:12:27 10° SE visible
27 Oct - 03:00:19 10° WNW 03:08:09 31° SW 03:16:11 10° S visible
27 Oct - 11:41:55 10° S 11:49:36 24° SE 11:57:13 10° E daylight
27 Oct - 13:44:32 10° SW 13:54:41 75° NW 14:04:39 10° NNE daylight
27 Oct - 15:55:27 10° WNW 16:00:01 14° NW 16:04:34 10° NNW daylight
28 Oct - 00:31:46 10° NNW 00:40:35 49° NE 00:49:27 10° ESE visible
28 Oct - 02:37:12 10° WNW 02:45:16 34° SW 02:53:31 10° SSE visible
28 Oct - 11:19:22 10° S 11:26:39 22° SE 11:33:52 10° E daylight
28 Oct - 13:21:36 10° SW 13:31:47 80° NW 13:41:48 10° NE daylight
28 Oct - 15:31:40 10° W 15:37:03 16° NW 15:42:23 10° NNW daylight
29 Oct - 00:09:03 10° NNW 00:17:43 45° NE 00:26:25 10° ESE visible
29 Oct - 02:14:07 10° WNW 02:22:23 37° SW 02:30:50 10° SSE visible
29 Oct - 10:56:52 10° S 11:03:41 20° SE 11:10:27 10° E daylight
29 Oct - 12:58:41 10° SW 13:08:52 86° NW 13:18:57 10° NE daylight
29 Oct - 15:08:02 10° W 15:14:04 17° NW 15:20:04 10° N daylight
29 Oct - 23:46:21 10° NNW 23:54:52 41° NE 00:03:23 10° ESE night (unlit)
30 Oct - 01:51:04 10° WNW 01:59:31 41° SW 02:08:08 10° SSE visible
30 Oct - 10:34:25 10° S 10:40:43 18° SE 10:46:58 10° E daylight
30 Oct - 12:35:47 10° SW 12:45:58 88° SE 12:56:04 10° NE daylight
30 Oct - 14:44:31 10° W 14:51:07 19° NW 14:57:40 10° N daylight
30 Oct - 23:23:40 10° NNW 23:32:00 37° NE 23:40:18 10° ESE night (unlit)
31 Oct - 01:28:02 10° WNW 01:36:39 44° SW 01:45:25 10° SSE visible
31 Oct - 10:12:04 10° S 10:17:44 16° SE 10:23:23 10° E daylight
31 Oct - 12:12:54 10° SW 12:23:04 82° SE 12:33:10 10° NE daylight
31 Oct - 14:21:04 10° W 14:28:09 21° NW 14:35:13 10° N daylight
31 Oct - 23:01:00 10° NNW 23:09:07 34° NE 23:17:13 10° ESE night (unlit)
01 Nov - 01:05:01 10° WNW 01:13:47 49° SW 01:22:41 10° SSE visible
01 Nov - 09:49:48 10° SSE 09:54:45 15° SE 09:59:41 10° ESE daylight
01 Nov - 11:50:02 10° SW 12:00:10 76° SE 12:10:14 10° NE daylight
01 Nov - 13:57:41 10° W 14:05:12 24° NW 14:12:41 10° N daylight
01 Nov - 22:38:21 10° N 22:46:15 31° NE 22:54:05 10° ESE night (unlit)
02 Nov - 00:42:02 10° NW 00:50:55 53° SW 00:59:56 10° SSE visible
02 Nov - 09:27:43 10° SSE 09:31:45 13° SE 09:35:47 10° ESE daylight
02 Nov - 11:27:11 10° SSW 11:37:16 70° SE 11:47:18 10° NE daylight
02 Nov - 13:34:22 10° W 13:42:16 26° NW 13:50:08 10° N daylight
02 Nov - 22:15:44 10° N 22:23:22 28° NE 22:30:55 10° ESE night (unlit)
03 Nov - 00:19:03 10° NW 00:28:04 58° SW 00:37:10 10° SSE visible
03 Nov - 09:05:59 10° SSE 09:08:45 11° SE 09:11:31 10° ESE daylight
03 Nov - 11:04:22 10° SSW 11:14:21 65° SE 11:24:20 10° NE daylight
03 Nov - 13:11:05 10° WSW 13:19:19 28° NW 13:27:32 10° N daylight
03 Nov - 21:53:08 10° N 22:00:28 26° NE 22:07:43 10° E night (unlit)
03 Nov - 23:56:06 10° NW 00:00:00 29° WNW 00:00:00 29° WNW night (unlit)
